| time (UTC) | temp F | wind direction | speed MPH | gust MPH | rain 1hr in | rain 24hr in | rain mn in | humidity % | barometer mb |
| 20260901021803 | 68 | 83 | 11.0 | 19.0 | 0.00 | 0.00 | 0.00 | 56 | 1015.2 |
| 20260901021118 | 68 | 75 | 12.0 | 19.0 | 0.00 | 0.00 | 0.00 | 57 | 1015.0 |
| 20260901020003 | 68 | 75 | 13.0 | 21.0 | 0.00 | 0.00 | 0.00 | 58 | 1015.3 |
| 20260901015403 | 68 | 75 | 13.0 | 21.0 | 0.00 | 0.00 | 0.00 | 58 | 1015.4 |
| 20260901014503 | 68 | 79 | 13.0 | 20.0 | 0.00 | 0.00 | 0.00 | 57 | 1015.2 |
| 20260901013603 | 68 | 80 | 11.0 | 18.0 | 0.00 | 0.00 | 0.00 | 57 | 1015.6 |
| 20260901012703 | 68 | 79 | 11.0 | 19.0 | 0.00 | 0.00 | 0.00 | 57 | 1015.6 |
| 20260901012018 | 68 | 74 | 9.0 | 18.0 | 0.00 | 0.00 | 0.00 | 58 | 1015.5 |
| 20260901010903 | 68 | 85 | 8.0 | 15.0 | 0.00 | 0.00 | 0.00 | 60 | 1015.6 |
| 20260901010003 | 68 | 74 | 7.0 | 15.0 | 0.00 | 0.00 | 0.00 | 61 | 1015.6 |
| 20260901005403 | 68 | 80 | 4.0 | 15.0 | 0.00 | 0.00 | 0.00 | 62 | 1015.6 |
| 20260901004503 | 68 | 43 | 2.0 | 11.0 | 0.00 | 0.00 | 0.00 | 63 | 1015.8 |
| 20260901003603 | 68 | 224 | 3.0 | 9.0 | 0.00 | 0.00 | 0.00 | 64 | 1015.7 |
| 20260901002703 | 68 | 47 | 3.0 | 9.0 | 0.00 | 0.00 | 0.00 | 64 | 1015.6 |
| 20260901001803 | 69 | 69 | 7.0 | 20.0 | 0.00 | 0.00 | 0.00 | 64 | 1015.6 |
| 20260901000903 | 69 | 79 | 8.0 | 18.0 | 0.00 | 0.00 | 0.00 | 64 | 1015.6 |
| 20260901000004 | 69 | 74 | 6.0 | 18.0 | 0.00 | 0.00 | 0.00 | 64 | 1015.3 |
| 20260831235403 | 68 | 87 | 2.0 | 6.0 | 0.00 | 0.00 | 0.00 | 65 | 1015.5 |
| 20260831234503 | 69 | 8 | 1.0 | 4.0 | 0.00 | 0.00 | 0.00 | 64 | 1015.6 |
| 20260831233603 | 70 | 23 | 2.0 | 10.0 | 0.00 | 0.00 | 0.00 | 62 | 1015.4 |
| 20260831232703 | 70 | 74 | 8.0 | 15.0 | 0.00 | 0.00 | 0.00 | 61 | 1015.2 |
| 20260831231803 | 70 | 86 | 9.0 | 15.0 | 0.00 | 0.00 | 0.00 | 63 | 1014.9 |
| 20260831230903 | 70 | 81 | 8.0 | 14.0 | 0.00 | 0.00 | 0.00 | 65 | 1014.6 |
| 20260831230003 | 69 | 80 | 8.0 | 14.0 | 0.00 | 0.00 | 0.00 | 65 | 1014.7 |
| 20260831225403 | 69 | 84 | 9.0 | 17.0 | 0.00 | 0.00 | 0.00 | 65 | 1014.5 |
| 20260831224717 | 69 | 79 | 8.0 | 17.0 | 0.00 | 0.00 | 0.00 | 65 | 1014.3 |
| 20260831223603 | 69 | 65 | 8.0 | 15.0 | 0.00 | 0.00 | 0.00 | 63 | 1014.4 |
| 20260831222703 | 70 | 66 | 9.0 | 15.0 | 0.00 | 0.00 | 0.00 | 61 | 1014.4 |
| 20260831221803 | 70 | 68 | 10.0 | 18.0 | 0.00 | 0.00 | 0.00 | 61 | 1014.1 |
| 20260831220903 | 69 | 72 | 8.0 | 16.0 | 0.00 | 0.00 | 0.00 | 62 | 1014.5 |
| 20260831220005 | 69 | 70 | 7.0 | 17.0 | 0.00 | 0.00 | 0.00 | 64 | 1014.5 |
| 20260831215403 | 69 | 62 | 6.0 | 15.0 | 0.00 | 0.00 | 0.00 | 66 | 1014.6 |
| 20260831214503 | 69 | 57 | 3.0 | 12.0 | 0.00 | 0.00 | 0.00 | 70 | 1014.7 |
| 20260831213603 | 69 | 22 | 2.0 | 4.0 | 0.00 | 0.00 | 0.00 | 71 | 1014.9 |
| 20260831212917 | 68 | 47 | 1.0 | 3.0 | 0.00 | 0.00 | 0.00 | 71 | 1014.5 |
| 20260831212016 | 68 | 53 | 1.0 | 3.0 | 0.00 | 0.00 | 0.00 | 71 | 1014.2 |
| 20260831210904 | 67 | 61 | 3.0 | 4.0 | 0.00 | 0.00 | 0.00 | 68 | 1014.0 |
| 20260831210003 | 68 | 24 | 3.0 | 5.0 | 0.00 | 0.00 | 0.00 | 65 | 1014.2 |
| 20260831205403 | 68 | 16 | 3.0 | 5.0 | 0.00 | 0.00 | 0.00 | 64 | 1014.4 |
| 20260831204503 | 68 | 28 | 3.0 | 4.0 | 0.00 | 0.00 | 0.00 | 64 | 1014.2 |
| 20260831203603 | 68 | 41 | 3.0 | 4.0 | 0.00 | 0.00 | 0.00 | 64 | 1014.0 |
| 20260831202917 | 67 | 35 | 3.0 | 4.0 | 0.00 | 0.00 | 0.00 | 67 | 1014.1 |
| 20260831201803 | 68 | 45 | 3.0 | 4.0 | 0.00 | 0.00 | 0.00 | 69 | 1014.1 |
| 20260831201117 | 67 | 55 | 3.0 | 4.0 | 0.00 | 0.00 | 0.00 | 69 | 1014.1 |
| 20260831200003 | 67 | 34 | 3.0 | 4.0 | 0.00 | 0.00 | 0.00 | 70 | 1014.1 |
| 20260831195403 | 67 | 22 | 3.0 | 3.0 | 0.00 | 0.00 | 0.00 | 71 | 1014.1 |
| 20260831194503 | 67 | 22 | 3.0 | 4.0 | 0.00 | 0.00 | 0.00 | 71 | 1014.0 |
| 20260831193603 | 68 | 18 | 3.0 | 4.0 | 0.00 | 0.00 | 0.00 | 71 | 1013.9 |
| 20260831192703 | 68 | 25 | 3.0 | 4.0 | 0.00 | 0.00 | 0.00 | 71 | 1013.7 |
| 20260831192018 | 68 | 25 | 3.0 | 5.0 | 0.00 | 0.00 | 0.00 | 72 | 1013.3 |
| 20260831191117 | 69 | 336 | 1.0 | 4.0 | 0.00 | 0.00 | 0.00 | 70 | 1013.3 |
| 20260831190004 | 69 | 208 | 1.0 | 6.0 | 0.00 | 0.00 | 0.00 | 70 | 1013.2 |
| 20260831185403 | 69 | 11 | 0.0 | 2.0 | 0.00 | 0.00 | 0.00 | 70 | 1013.3 |
| 20260831184503 | 70 | 85 | 1.0 | 4.0 | 0.00 | 0.00 | 0.00 | 70 | 1013.1 |
| 20260831183603 | 70 | 153 | 2.0 | 5.0 | 0.00 | 0.00 | 0.00 | 70 | 1013.0 |
| 20260831182703 | 70 | 159 | 2.0 | 5.0 | 0.00 | 0.00 | 0.00 | 70 | 1012.6 |
| 20260831181803 | 70 | 157 | 2.0 | 4.0 | 0.00 | 0.00 | 0.00 | 70 | 1012.6 |
| 20260831181117 | 71 | 150 | 2.0 | 4.0 | 0.00 | 0.00 | 0.00 | 70 | 1012.4 |
| 20260831180004 | 71 | 170 | 3.0 | 7.0 | 0.00 | 0.00 | 0.00 | 69 | 1012.4 |
| 20260831175403 | 72 | 188 | 3.0 | 7.0 | 0.00 | 0.00 | 0.00 | 69 | 1012.4 |
| 20260831174503 | 72 | 200 | 3.0 | 9.0 | 0.00 | 0.00 | 0.00 | 69 | 1012.4 |
| 20260831173603 | 73 | 206 | 4.0 | 8.0 | 0.00 | 0.00 | 0.00 | 70 | 1012.4 |
| 20260831172703 | 74 | 209 | 4.0 | 6.0 | 0.00 | 0.00 | 0.00 | 70 | 1012.4 |
| 20260831172017 | 74 | 224 | 4.0 | 11.0 | 0.00 | 0.00 | 0.00 | 69 | 1012.5 |
| 20260831170903 | 75 | 230 | 6.0 | 11.0 | 0.00 | 0.00 | 0.00 | 67 | 1012.7 |
| 20260831170003 | 76 | 237 | 4.0 | 10.0 | 0.00 | 0.00 | 0.00 | 65 | 1012.6 |
| 20260831165403 | 76 | 230 | 5.0 | 9.0 | 0.00 | 0.00 | 0.00 | 64 | 1012.7 |
| 20260831164503 | 77 | 222 | 5.0 | 9.0 | 0.00 | 0.00 | 0.00 | 63 | 1012.6 |
| 20260831163603 | 78 | 243 | 4.0 | 9.0 | 0.00 | 0.00 | 0.00 | 62 | 1012.8 |
| 20260831162703 | 78 | 236 | 3.0 | 6.0 | 0.00 | 0.00 | 0.00 | 61 | 1012.8 |
| 20260831161803 | 78 | 231 | 5.0 | 9.0 | 0.00 | 0.00 | 0.00 | 61 | 1012.8 |
| 20260831160903 | 78 | 233 | 5.0 | 10.0 | 0.00 | 0.00 | 0.00 | 61 | 1012.8 |
| 20260831160003 | 78 | 236 | 5.0 | 10.0 | 0.00 | 0.00 | 0.00 | 60 | 1012.8 |
| 20260831155403 | 79 | 244 | 7.0 | 10.0 | 0.00 | 0.00 | 0.00 | 61 | 1012.8 |
| 20260831154718 | 79 | 240 | 5.0 | 12.0 | 0.00 | 0.00 | 0.00 | 59 | 1012.8 |
| 20260831153603 | 79 | 223 | 6.0 | 12.0 | 0.00 | 0.00 | 0.00 | 61 | 1012.8 |
| 20260831152703 | 79 | 212 | 5.0 | 8.0 | 0.00 | 0.00 | 0.00 | 59 | 1012.9 |
| 20260831152016 | 80 | 223 | 5.0 | 8.0 | 0.00 | 0.00 | 0.00 | 58 | 1012.9 |
| 20260831150903 | 79 | 232 | 6.0 | 11.0 | 0.00 | 0.00 | 0.00 | 57 | 1013.0 |
| 20260831150004 | 80 | 243 | 6.0 | 11.0 | 0.00 | 0.00 | 0.00 | 59 | 1013.0 |
| 20260831145403 | 80 | 237 | 6.0 | 12.0 | 0.00 | 0.00 | 0.00 | 58 | 1013.0 |
| 20260831144503 | 80 | 231 | 5.0 | 10.0 | 0.00 | 0.00 | 0.00 | 57 | 1013.0 |
| 20260831143603 | 80 | 243 | 5.0 | 14.0 | 0.00 | 0.00 | 0.00 | 59 | 1013.0 |
| 20260831142703 | 80 | 240 | 7.0 | 14.0 | 0.00 | 0.00 | 0.00 | 59 | 1012.9 |
| 20260831141803 | 80 | 234 | 7.0 | 13.0 | 0.00 | 0.00 | 0.00 | 58 | 1013.0 |
| 20260831140903 | 80 | 239 | 7.0 | 12.0 | 0.00 | 0.00 | 0.00 | 57 | 1013.0 |
| 20260831140004 | 80 | 240 | 8.0 | 14.0 | 0.00 | 0.00 | 0.00 | 58 | 1013.0 |
| 20260831135403 | 80 | 245 | 6.0 | 14.0 | 0.00 | 0.00 | 0.00 | 58 | 1012.9 |
| 20260831134717 | 80 | 247 | 7.0 | 13.0 | 0.00 | 0.00 | 0.00 | 58 | 1012.9 |
| 20260831133603 | 80 | 229 | 5.0 | 12.0 | 0.00 | 0.00 | 0.00 | 56 | 1012.9 |
| 20260831132703 | 80 | 249 | 6.0 | 16.0 | 0.00 | 0.00 | 0.00 | 57 | 1013.0 |
| 20260831131803 | 81 | 248 | 7.0 | 11.0 | 0.00 | 0.00 | 0.00 | 57 | 1013.1 |
| 20260831130903 | 80 | 237 | 8.0 | 14.0 | 0.00 | 0.00 | 0.00 | 56 | 1013.2 |
| 20260831130004 | 80 | 243 | 8.0 | 14.0 | 0.00 | 0.00 | 0.00 | 56 | 1013.1 |
| 20260831125403 | 80 | 248 | 6.0 | 14.0 | 0.00 | 0.00 | 0.00 | 56 | 1013.2 |
| 20260831124503 | 81 | 239 | 6.0 | 11.0 | 0.00 | 0.00 | 0.00 | 54 | 1013.2 |
| 20260831123603 | 81 | 225 | 5.0 | 12.0 | 0.00 | 0.00 | 0.00 | 53 | 1013.2 |
| 20260831122703 | 83 | 262 | 4.0 | 11.0 | 0.00 | 0.00 | 0.00 | 52 | 1013.3 |
| 20260831121803 | 83 | 247 | 3.0 | 12.0 | 0.00 | 0.00 | 0.00 | 54 | 1013.2 |
| 20260831120903 | 81 | 233 | 4.0 | 9.0 | 0.00 | 0.00 | 0.00 | 54 | 1013.3 |
| 20260831120004 | 81 | 234 | 4.0 | 9.0 | 0.00 | 0.00 | 0.00 | 55 | 1013.3 |
| 20260831115617 | 80 | 220 | 4.0 | 9.0 | 0.00 | 0.00 | 0.00 | 54 | 1013.3 |
| 20260831114503 | 81 | 258 | 4.0 | 8.0 | 0.00 | 0.00 | 0.00 | 54 | 1013.5 |
| 20260831113818 | 80 | 251 | 4.0 | 11.0 | 0.00 | 0.00 | 0.00 | 56 | 1013.7 |
| 20260831112703 | 81 | 268 | 2.0 | 7.0 | 0.00 | 0.00 | 0.00 | 54 | 1013.8 |
| 20260831111803 | 80 | 265 | 3.0 | 9.0 | 0.00 | 0.00 | 0.00 | 57 | 1013.8 |
| 20260831110903 | 81 | 249 | 2.0 | 9.0 | 0.00 | 0.00 | 0.00 | 56 | 1013.9 |
| 20260831110004 | 80 | 261 | 3.0 | 9.0 | 0.00 | 0.00 | 0.00 | 58 | 1013.8 |
| 20260831105403 | 80 | 262 | 2.0 | 9.0 | 0.00 | 0.00 | 0.00 | 59 | 1014.0 |
| 20260831104503 | 80 | 259 | 2.0 | 6.0 | 0.00 | 0.00 | 0.00 | 59 | 1013.9 |
| 20260831103603 | 79 | 246 | 3.0 | 8.0 | 0.00 | 0.00 | 0.00 | 58 | 1013.9 |
| 20260831102917 | 80 | 265 | 3.0 | 7.0 | 0.00 | 0.00 | 0.00 | 58 | 1014.0 |
| 20260831101803 | 79 | 253 | 3.0 | 9.0 | 0.00 | 0.00 | 0.00 | 59 | 1014.0 |
| 20260831100903 | 78 | 245 | 4.0 | 9.0 | 0.00 | 0.00 | 0.00 | 59 | 1014.0 |
| 20260831100003 | 78 | 241 | 3.0 | 7.0 | 0.00 | 0.00 | 0.00 | 55 | 1014.0 |
| 20260831095403 | 77 | 249 | 3.0 | 7.0 | 0.00 | 0.00 | 0.00 | 57 | 1014.0 |
| 20260831094718 | 78 | 254 | 3.0 | 6.0 | 0.00 | 0.00 | 0.00 | 58 | 1014.0 |
| 20260831093603 | 78 | 252 | 2.0 | 7.0 | 0.00 | 0.00 | 0.00 | 58 | 1014.0 |
| 20260831092703 | 77 | 251 | 4.0 | 8.0 | 0.00 | 0.00 | 0.00 | 61 | 1014.1 |
| 20260831091803 | 79 | 261 | 2.0 | 5.0 | 0.00 | 0.00 | 0.00 | 59 | 1014.1 |
| 20260831090903 | 78 | 263 | 1.0 | 5.0 | 0.00 | 0.00 | 0.00 | 60 | 1014.1 |
| 20260831090004 | 78 | 273 | 1.0 | 4.0 | 0.00 | 0.00 | 0.00 | 59 | 1014.1 |
| 20260831085403 | 78 | 264 | 1.0 | 3.0 | 0.00 | 0.00 | 0.00 | 59 | 1014.1 |
| 20260831084503 | 77 | 263 | 1.0 | 6.0 | 0.00 | 0.00 | 0.00 | 62 | 1014.0 |
| 20260831083603 | 77 | 259 | 1.0 | 6.0 | 0.00 | 0.00 | 0.00 | 62 | 1014.0 |
| 20260831082703 | 76 | 258 | 1.0 | 4.0 | 0.00 | 0.00 | 0.00 | 61 | 1013.8 |
| 20260831082017 | 76 | 294 | 1.0 | 3.0 | 0.00 | 0.00 | 0.00 | 59 | 1013.8 |
| 20260831080903 | 76 | 280 | 0.0 | 1.0 | 0.00 | 0.00 | 0.00 | 61 | 1013.7 |
| 20260831080004 | 74 | 255 | 0.0 | 2.0 | 0.00 | 0.00 | 0.00 | 65 | 1013.7 |
| 20260831075403 | 74 | 285 | 0.0 | 1.0 | 0.00 | 0.00 | 0.00 | 67 | 1013.7 |
| 20260831074717 | 73 | 290 | 0.0 | 2.0 | 0.00 | 0.00 | 0.00 | 66 | 1013.7 |
| 20260831073816 | 72 | 258 | 2.0 | 3.0 | 0.00 | 0.00 | 0.00 | 68 | 1013.6 |
| 20260831072703 | 73 | 275 | 0.0 | 2.0 | 0.00 | 0.00 | 0.00 | 65 | 1013.6 |
| 20260831071803 | 72 | 0 | 0.0 | 0.0 | 0.00 | 0.00 | 0.00 | 65 | 1013.5 |
| 20260831070903 | 72 | 0 | 0.0 | 0.0 | 0.00 | 0.00 | 0.00 | 65 | 1013.3 |
| 20260831070003 | 72 | 273 | 0.0 | 2.0 | 0.00 | 0.00 | 0.00 | 65 | 1013.3 |
| 20260831065403 | 72 | 273 | 0.0 | 2.0 | 0.00 | 0.00 | 0.00 | 66 | 1013.2 |
| 20260831064503 | 72 | 0 | 0.0 | 0.0 | 0.00 | 0.00 | 0.00 | 65 | 1013.1 |
| 20260831063603 | 70 | 0 | 0.0 | 0.0 | 0.00 | 0.00 | 0.00 | 67 | 1013.0 |
| 20260831062917 | 70 | 305 | 0.0 | 2.0 | 0.00 | 0.00 | 0.00 | 66 | 1013.1 |
| 20260831061803 | 72 | 73 | 3.0 | 8.0 | 0.00 | 0.00 | 0.00 | 64 | 1013.2 |
| 20260831060903 | 71 | 74 | 4.0 | 7.0 | 0.00 | 0.00 | 0.00 | 64 | 1012.9 |
| 20260831060004 | 70 | 71 | 3.0 | 6.0 | 0.00 | 0.00 | 0.00 | 65 | 1012.9 |
| 20260831055617 | 70 | 74 | 3.0 | 6.0 | 0.00 | 0.00 | 0.00 | 65 | 1012.9 |
| 20260831054503 | 69 | 68 | 5.0 | 10.0 | 0.00 | 0.00 | 0.00 | 66 | 1013.1 |
| 20260831053603 | 69 | 71 | 4.0 | 10.0 | 0.00 | 0.00 | 0.00 | 67 | 1012.9 |
| 20260831052703 | 68 | 71 | 2.0 | 8.0 | 0.00 | 0.00 | 0.00 | 67 | 1012.9 |
| 20260831051803 | 68 | 78 | 3.0 | 10.0 | 0.00 | 0.00 | 0.00 | 67 | 1012.8 |
| 20260831050903 | 68 | 66 | 4.0 | 8.0 | 0.00 | 0.00 | 0.00 | 67 | 1012.8 |
| 20260831050004 | 68 | 63 | 3.0 | 9.0 | 0.00 | 0.00 | 0.00 | 67 | 1012.9 |
| 20260831045403 | 68 | 64 | 4.0 | 8.0 | 0.00 | 0.00 | 0.00 | 67 | 1012.9 |
| 20260831044718 | 68 | 68 | 4.0 | 9.0 | 0.00 | 0.00 | 0.00 | 67 | 1012.8 |
| 20260831043603 | 68 | 70 | 4.0 | 9.0 | 0.00 | 0.00 | 0.00 | 67 | 1012.9 |
| 20260831042703 | 68 | 65 | 4.0 | 11.0 | 0.00 | 0.00 | 0.00 | 66 | 1012.8 |
| 20260831041803 | 68 | 70 | 5.0 | 14.0 | 0.00 | 0.00 | 0.00 | 66 | 1012.8 |
| 20260831041117 | 68 | 69 | 4.0 | 11.0 | 0.00 | 0.00 | 0.00 | 67 | 1012.9 |
| 20260831040217 | 68 | 65 | 5.0 | 11.0 | 0.00 | 0.00 | 0.00 | 66 | 1012.9 |
| 20260831035403 | 68 | 63 | 5.0 | 11.0 | 0.00 | 0.00 | 0.00 | 66 | 1012.8 |
| 20260831034718 | 68 | 61 | 5.0 | 11.0 | 0.00 | 0.00 | 0.00 | 66 | 1012.9 |
| 20260831033603 | 68 | 72 | 6.0 | 11.0 | 0.00 | 0.00 | 0.00 | 67 | 1012.9 |
| 20260831032918 | 68 | 75 | 7.0 | 13.0 | 0.00 | 0.00 | 0.00 | 67 | 1012.9 |
| 20260831031803 | 68 | 75 | 7.0 | 13.0 | 0.00 | 0.00 | 0.00 | 67 | 1012.9 |
| 20260831030903 | 68 | 77 | 8.0 | 12.0 | 0.00 | 0.00 | 0.00 | 68 | 1012.9 |
| 20260831030003 | 68 | 79 | 7.0 | 12.0 | 0.00 | 0.00 | 0.00 | 69 | 1013.0 |
| 20260831025403 | 67 | 80 | 6.0 | 12.0 | 0.00 | 0.00 | 0.00 | 69 | 1013.0 |
| 20260831024503 | 66 | 107 | 2.0 | 9.0 | 0.00 | 0.00 | 0.00 | 70 | 1013.1 |
| 20260831023603 | 67 | 214 | 1.0 | 3.0 | 0.00 | 0.00 | 0.00 | 69 | 1013.1 |
| 20260831022703 | 67 | 261 | 1.0 | 4.0 | 0.00 | 0.00 | 0.00 | 68 | 1013.2 |